OISL  Lar Airport

Add Bookmark

Lar, Iran

Status IATA
Operational LRR
Latitude Longitude
27° 40' 28" N 54° 22' 59" E
27.674700 54.383301
Local (DST + 5) UTC (GMT + 4)
Dec 26, 2014 10:45 Dec 26, 2014 19:15
Sunrise-Sunset Local UTC
Begin Civil Twilight 06:14 02:44
Sunrise 06:39 03:09
Sunset 05:06 13:36
End Civil Twilight 05:31 14:01

Current Weather

METAR Observed VFR
OISL 261800Z 00000KT CAVOK 10/00 Q1021 Fri, Dec 26, 2014 @ 18:00 UTC
(1 Hour, 15 Minutes ago)
Visual Flight Rules
Wind Visibility Clouds Conditions
Calm 10 km or more
  • Clear skies
  • No significant weather
Temperatures Readings Precipitation
Current Temp 10°C (50°F)
Dewpoint 0°C (32°F)
Humidity 50%
Altimeter 30.15"Hg
Sea Level Pressure 1021mb
Field Elevation 2641.08'
None Recorded

Additional weather within a 185.2km radius of OISL

Map ICAO Location
OISR 122.4km W (254°)
OIBK 133.7km S (197°)
OIBL 134.3km S (161°)
OIBV 139.6km S (227°)
OIBP 165.4km W (259°)
OIKQ 181.7km S (124°)

24 Hour Weather History

Loading
-

24 Hour Weather Graphs

Loading
-

CheckWX.com is intended as a tool to help pilots better visualize weather data. It is not intended as a substitute for an official weather briefing obtained from a Flight Service Station. CheckWX.com does not meet the FAA requirements for an official pre-flight weather briefing. Therefore, it's important that pilots still call and obtain an official FSS pre-flight weather briefing.